Location: Beneden-Haastrecht
(52.0012°N, 4.7557°E)
Time: 21:03:18
(UTC+00:00)

Daily predictions for brighter satellites

Satellite Brightness Start Highest point End
(mag) Time Altitude Azimuth Time Altitude Azimuth Time Altitude Azimuth
FengYun 1-2 T 4.3 16:52:34 10° SSE 16:58:09 64° ENE 17:03:45 10° N
BREEZE-M R/B 3.4 16:56:27 10° WSW 16:59:38 54° SSE 17:05:34 10° E
NOAA 11 4.3 16:54:30 10° SSE 16:59:50 59° ENE 17:05:11 10° N
Cosmos 2056 Rocket 4.1 16:55:41 10° SW 17:00:49 61° WNW 17:05:56 10° NNE
Feng Yun 1-1 Rocket 4.5 16:57:38 10° SE 17:03:24 59° ENE 17:09:13 10° N
GEOS 3 Rocket 4.0 16:58:16 10° ESE 17:03:25 50° NE 17:08:38 10° NW
Helios 1A Rocket 3.8 17:00:07 10° ESE 17:03:41 29° ENE 17:07:15 10° N
Cosmos 1850 Rocket 4.2 17:00:55 10° NNW 17:06:14 84° WSW 17:11:34 10° SSE
Cosmos 2297 Rocket 2.8 17:03:07 10° NNW 17:08:24 37° NE 17:13:37 10° ESE
Cosmos 2369 Rocket 2.9 17:04:10 10° SW 17:09:46 58° NW 17:15:26 10° NNE
Cosmos 1939 Rocket 3.2 17:07:50 10° SE 17:11:36 42° ENE 17:15:20 10° N
COSMO-SKYMED 1 3.4 17:08:51 10° NNE 17:12:39 29° E 17:16:26 10° SSE
NOAA 12 4.4 17:09:33 10° S 17:14:50 74° WSW 17:20:11 10° NNW
Cosmos 1689 Rocket 3.4 17:13:17 10° NE 17:15:31 20° E 17:17:45 10° SE
Cosmos 304 Rocket 3.9 17:11:16 10° SSW 17:16:04 84° WNW 17:20:53 10° NNE
FALCON 9 DEB 3.1 17:12:50 10° WSW 17:16:16 88° SSE 17:19:24 12° ENE
Cosmos 1452 Rocket 3.5 17:12:03 10° SSW 17:17:18 76° ESE 17:22:36 10° NNE
Okean O Rocket 2.3 17:14:10 10° S 17:18:29 59° WSW 17:22:49 10° NNW
Cosmos 2058 4.5 17:16:49 10° NNE 17:19:23 16° ENE 17:21:44 11° E
Aureole 3 Rocket 4.3 17:16:31 10° SE 17:19:38 22° E 17:23:31 10° NNE
H-2A R/B 2.7 17:16:10 10° N 17:20:20 58° WNW 17:24:23 10° SSW
Cosmos 1328 3.8 17:16:30 10° NNW 17:20:28 86° W 17:24:25 10° S
H-2A R/B 3.0 17:17:02 10° ESE 17:21:36 28° ENE 17:26:12 10° N
Cosmos 2098 Rocket 4.2 17:19:19 10° NNW 17:22:23 34° W 17:25:07 10° SSW
ADEOS Rocket 3.5 17:18:11 10° NNE 17:24:18 72° WNW 17:31:07 10° SSW
Cosmos 1340 3.6 17:21:37 10° N 17:24:54 27° ENE 17:28:10 10° SE
IRS-1C Rocket 4.1 17:21:25 10° SSE 17:26:38 68° ENE 17:31:54 10° NNW
NOSS 2-1 (E) 3.6 17:23:21 10° WSW 17:26:40 57° NW 17:30:30 10° NE
Cosmos 1825 Rocket 3.5 17:22:17 10° N 17:26:47 75° E 17:31:13 10° SSE
ERS-2 2.0 17:23:57 10° NNE 17:27:38 83° ESE 17:31:16 10° SSW
Cosmos 1356 Rocket 3.8 17:23:28 10° SSW 17:27:44 73° WNW 17:32:04 10° N
CZ-4 R/B 1.8 17:25:43 10° SE 17:29:19 37° ENE 17:32:54 10° N
BREEZE-M DEB (TANK) 4.1 17:27:23 10° WSW 17:31:01 81° SSE 17:42:44 13° ENE
YAOGAN 1 3.0 17:29:08 10° SE 17:33:08 38° ENE 17:37:10 10° N
Cosmos 2219 3.4 17:28:20 10° NNW 17:33:59 53° NE 17:39:37 10° SE
USA 281 4.4 17:27:53 10° S 17:34:08 46° WSW 17:40:27 10° NW
Meteor 2-21 Rocket 4.4 17:28:09 10° N 17:34:22 76° ENE 17:40:31 10° SSE
Lacrosse 5 2.2 17:29:30 10° W 17:34:32 62° NNW 17:38:57 13° ENE
ERBS 2.9 17:32:15 10° W 17:35:30 49° NNW 17:38:04 15° NE
CZ-4B R/B 1.4 17:35:42 10° NNE 17:39:00 78° WNW 17:42:12 10° SSW
SAR-Lupe-4 3.5 17:35:53 10° NNE 17:39:28 63° ESE 17:43:02 10° S
Ariane Rocket 4.5 17:38:39 15° ENE 17:40:20 18° NE 17:43:42 10° NNE
Cosmos 1241 Rocket 4.5 17:34:57 10° SSW 17:41:16 78° SE 17:47:47 10° NE
Cosmos 1400 Rocket 3.6 17:39:56 10° SSE 17:43:33 30° E 17:47:10 10° NNE
USA 305 3.0 17:39:40 10° WNW 17:43:58 68° N 17:46:51 20° E
Cosmos 1758 Rocket 4.2 17:39:40 10° NNW 17:44:03 59° W 17:48:21 10° S
Cosmos 2082 4.4 17:39:25 10° NNW 17:44:40 35° NE 17:48:23 17° E
Cosmos 44 4.0 17:41:08 10° S 17:45:03 30° ESE 17:47:38 18° ENE
Okean-O 2.6 17:42:02 10° SSE 17:46:24 63° ENE 17:50:48 10° N
Cosmos 1726 Rocket 3.6 17:42:17 10° S 17:46:32 56° E 17:50:50 10° NNE
CZ-4C R/B 3.7 17:41:26 10° WNW 17:46:50 31° N 17:52:05 14° ENE
NOSS 2-2 (E) 4.5 17:43:49 10° NW 17:49:09 90° SW 17:56:38 10° SE
USA 306 3.0 17:45:55 10° WNW 17:50:12 69° N 17:52:49 23° E
Cosmos 1745 Rocket 4.3 17:46:40 10° N 17:52:37 43° ENE 17:58:35 10° SE
Cosmos 1818 4.1 17:49:59 10° WSW 17:55:21 58° NW 18:00:46 10° NE
Cosmos 1943 Rocket 4.1 17:50:58 10° W 17:55:29 25° NW 18:00:00 10° NNE
SAR-Lupe-1 4.0 17:53:34 10° NNE 17:57:11 88° WNW 18:00:47 10° SSW
Aureole 3 3.0 17:56:12 10° SSE 17:59:16 40° E 18:00:42 23° NE
Cosmos 1606 Rocket 3.5 17:56:33 10° S 18:00:55 87° W 18:05:21 10° N
Cosmos 1331 Rocket 3.9 17:55:47 10° SSW 18:00:55 72° ESE 18:06:05 10° NNE
SKYMED 2 3.5 17:56:35 10° NNE 18:00:58 79° ESE 18:05:18 10° SSW
NOSS 3-4 (A) 4.4 17:56:00 10° NW 18:02:09 40° NNE 18:06:19 21° ENE
NOSS 3-4 (C) 4.4 17:56:06 10° NW 18:02:15 40° NNE 18:06:25 21° ENE
Cosmos 1244 Rocket 4.4 17:58:42 10° N 18:04:56 87° E 18:11:11 10° S
Cosmos 2228 3.1 18:00:59 10° SSW 18:05:13 75° WNW 18:09:32 10° N
GENESIS II 4.5 18:01:27 10° SSW 18:05:21 49° SE 18:07:01 29° ENE
ATLAS 5 CENTAUR R/B 3.1 18:01:28 10° W 18:05:24 32° NNW 18:09:34 12° NE
NOSS 2-2 (D) 4.4 18:00:46 10° NW 18:06:01 85° SW 18:13:23 10° SE
SL-4 R/B 1.6 18:03:01 10° W 18:06:35 83° S 18:08:01 36° E
CZ-2C R/B 3.2 18:03:27 10° SSE 18:09:15 78° ENE 18:14:56 10° NNW
Cosmos 292 Rocket 3.7 18:05:19 10° SSW 18:10:04 66° ESE 18:14:52 10° NNE
Cosmos 1346 Rocket 3.1 18:07:45 10° N 18:11:36 43° ENE 18:12:50 33° ESE
Cosmos 2227 Rocket 2.1 18:06:39 10° NNW 18:12:20 74° ENE 18:17:08 15° SE
ARGOS 3.3 18:09:09 12° SE 18:14:03 51° ENE 18:19:19 10° N
Cosmos 1892 2.6 18:12:29 10° N 18:16:21 65° ENE 18:19:18 17° SSE
Meteor 2-10 Rocket 3.9 18:12:02 10° SSE 18:16:56 38° E 18:21:42 10° NNE
SeaSat 1 2.4 18:14:54 19° SE 18:18:25 72° NE 18:23:22 10° NNW
CZ-2D R/B 4.2 18:17:12 10° S 18:20:55 49° W 18:24:39 10° NNW
USA 215 3.3 18:17:29 26° E 18:21:24 74° NNE 18:27:56 10° WNW
Cosmos 1709 Rocket 4.4 18:16:46 10° N 18:22:47 42° ENE 18:25:51 26° ESE
Cosmos 2263 Rocket 3.4 18:18:31 10° NNW 18:23:12 25° NE 18:24:13 24° NE
Cosmos 968 Rocket 3.4 18:18:02 10° NNW 18:23:18 75° ENE 18:26:57 20° SSE
Cosmos 1656 4.0 18:18:38 10° S 18:23:50 42° ESE 18:26:21 27° ENE
ATLAS 2AS CENTAUR R/B 3.5 18:17:06 10° NW 18:24:26 43° NNE 18:27:53 27° ENE
Cosmos 1110 Rocket 4.3 18:21:25 10° SSW 18:26:39 70° WNW 18:31:53 10° NNE
CSL-04 Rocket 3.6 18:21:24 10° SSE 18:26:58 82° ENE 18:32:31 10° NNW
Cosmos 2058 Rocket 3.0 18:23:02 10° S 18:27:31 89° ESE 18:32:04 10° N
Cosmos 1302 Rocket 3.9 18:24:14 10° SSW 18:29:26 67° ESE 18:34:42 10° NNE
Cosmos 1486 Rocket 3.9 18:24:23 10° NNW 18:29:47 86° ENE 18:33:47 18° SSE
HJ-1C 3.2 18:30:28 70° SE 18:30:46 79° ENE 18:34:09 10° N
Cosmos 1300 3.6 18:28:14 10° SSW 18:31:56 49° WNW 18:35:41 10° N
USA 307 2.8 18:27:39 10° WNW 18:31:59 83° NNE 18:32:53 54° E
Cosmos 1697 Rocket 4.1 18:30:53 10° SSE 18:32:53 20° SSE 18:32:53 20° SSE
USA 308 2.8 18:32:25 10° WNW 18:36:44 86° NNE 18:37:27 61° E
Cosmos 1503 Rocket 3.9 18:33:47 10° NNW 18:38:58 64° ENE 18:40:29 44° ESE
GEOS 3 Rocket 4.4 18:36:45 13° SSE 18:41:27 51° SW 18:46:43 10° NW
DMSP B5D1-3 4.4 18:36:30 10° NNE 18:41:40 74° ESE 18:46:48 10° S
CRYOSAT 2 4.2 18:38:21 10° N 18:43:14 76° E 18:48:05 10° S
S3M 3.8 18:38:43 10° S 18:44:46 69° E 18:50:55 10° NNE
Cosmos 1825 3.1 18:42:05 10° N 18:44:29 35° NNE 18:44:29 35° NNE
Cosmos 1689 Rocket 4.4 18:44:16 10° N 18:46:41 24° WNW 18:49:05 10° WSW
Cosmos 1354 Rocket 3.9 18:43:22 10° NNW 18:48:37 67° ENE 18:49:37 54° ESE
Resurs 01 Rocket 3.9 18:51:16 13° NNE 18:51:16 13° NNE 18:52:00 10° NNE
COSMO-SKYMED 1 4.0 18:44:52 10° N 18:48:54 38° WNW 18:52:56 10° SW
Cosmos 1408 2.7 18:47:14 10° NNW 18:50:33 70° NW 18:50:33 70° NW
Cosmos 2297 Rocket 2.9 18:47:10 10° NW 18:52:40 53° WSW 18:57:46 12° S
FALCON 9 DEB 3.9 18:49:56 10° W 18:52:39 52° WNW 18:52:39 52° WNW
Cosmos 2369 Rocket 4.5 18:51:04 10° WNW 18:55:04 19° NNW 18:59:04 10° NNE
Cosmos 2058 3.1 18:52:41 10° NNW 18:56:47 66° W 18:57:58 43° SSW
MOS 1 Rocket 3.2 18:52:44 10° NNE 18:57:18 87° WNW 19:02:07 10° SSW
Meteor 2-3 Rocket 4.4 18:53:29 10° N 18:57:55 37° NE 18:57:55 37° NE
SJ 16-02 3.8 18:56:27 10° N 18:56:56 11° NNE 18:56:56 11° NNE
H-2A R/B 2.7 18:55:21 10° S 19:00:41 60° W 19:06:07 10° NNW
SL-08 RB Rocket 3.5 19:03:11 88° ENE 19:03:11 88° ENE 19:07:43 10° NNW
CZ-4 R/B 3.6 19:01:15 10° SSW 19:04:28 24° W 19:07:40 10° NW
Aureole 3 Rocket 4.4 19:02:50 10° SW 19:06:36 42° WNW 19:11:43 10° N
Timation 1 Rocket 4.2 19:01:23 10° NNW 19:07:27 76° NE 19:08:22 63° ESE
SJ-6B 4.4 19:13:02 28° N 19:13:02 28° N 19:15:06 10° N
Cosmos 1076 Rocket 3.7 19:06:50 10° NNW 19:10:59 66° W 19:10:59 66° W
ERBS 4.4 19:09:08 10° WNW 19:10:58 24° NW 19:10:58 24° NW
Lacrosse 5 2.4 19:13:11 10° WNW 19:18:07 48° N 19:18:09 48° N
Ariane Rocket 2.9 19:18:51 82° N 19:18:51 82° N 19:23:46 10° NNW
Geosat 4.4 19:17:11 29° NNE 19:19:42 62° NW 19:24:39 10° SW
BREEZE-M R/B 4.1 19:17:28 10° W 19:22:07 66° S 19:23:14 58° SE
USA 305 3.9 19:19:47 10° WNW 19:23:00 46° W 19:23:00 46° W
MetOp-A 4.0 19:24:28 81° N 19:24:28 81° N 19:29:37 10° NNW
Cosmos 44 3.7 19:21:31 10° WSW 19:26:02 55° NW 19:26:06 55° NW
Cosmos 2082 4.1 19:23:28 10° NW 19:29:07 59° WSW 19:30:18 49° SSW
USA 306 4.1 19:26:02 10° WNW 19:28:58 40° W 19:28:58 40° W
Cosmos 2278 Rocket 4.5 19:33:56 10° N 19:36:13 12° NNE 19:36:44 12° NNE
CZ-4C R/B 3.2 19:30:28 10° NW 19:36:53 48° NNE 19:37:16 48° NE
COSMOS 2455 4.4 19:39:01 10° NNW 19:43:40 23° NNE 19:43:40 23° NNE
SL-4 R/B 4.4 19:42:28 10° W 19:43:36 19° W 19:43:36 19° W
ATLAS 5 CENTAUR R/B 3.7 19:47:37 10° NW 19:51:05 23° N 19:51:05 23° N
NOSS 3-4 (A) 3.7 19:46:59 10° NW 19:53:45 88° NNW 19:53:45 88° NNW
NOSS 3-4 (C) 3.7 19:47:05 10° NW 19:53:51 87° NNW 19:53:51 87° NNW
Cosmos 2227 Rocket 4.2 19:51:29 10° NW 19:55:51 23° WSW 19:59:01 15° SW
SeaSat 1 4.5 19:54:42 19° SW 19:56:22 23° WSW 20:00:15 10° NW
CZ-2C R/B 4.2 19:51:12 10° N 19:53:40 27° N 19:53:40 27° N
Cosmos 1844 Rocket 4.4 19:53:05 10° NNW 19:55:55 23° N 19:55:55 23° N
USA 215 3.6 20:04:50 55° SW 20:04:50 55° SW 20:11:03 10° WNW
Cosmos 2263 Rocket 3.2 20:02:10 10° NNW 20:05:55 43° NNW 20:05:55 43° NNW
ATLAS 2AS CENTAUR R/B 2.9 20:08:33 10° NW 20:15:19 71° NW 20:15:19 71° NW
Resurs 01 Rocket 4.5 20:28:50 13° NNW 20:28:50 13° NNW 20:29:16 10° NNW
SJ 16-02 4.4 20:33:51 10° NNW 20:33:54 10° NNW 20:33:54 10° NNW
CZ-4C R/B 4.1 21:18:58 10° NW 21:22:26 34° NW 21:22:26 34° NW
